User: anonymous   Login
Location: Bonny Doon Airfield
(37.0704°N, 122.1252°W)
Time: 09:35:50
(UTC-07:00)
Language:

Vanguard 1 Rocket - Orbit

View from above orbital plane
View from above orbital plane
View from above satellite
View from above satellite

Ground track
Ground track

The orbit data is extracted from the following two-line orbital elements,

1 00016U 58002A   18169.15680288  .00000099  00000-0  16302-3 0  9998
2 00016  34.2614 103.4639 2025156  38.4665 334.4209 10.48656848382152
Epoch (UTC): 18 June 2018 03:45:47
Eccentricity: 0.2025156
inclination: 34.2614°
perigee height: 653 km
apogee height: 4224 km
right ascension of ascending node: 103.4639°
argument of perigee: 38.4665°
revolutions per day: 10.48656848
mean anomaly at epoch: 334.4209°
orbit number at epoch: 38215

The dashed part of the orbit path shows where the satellite is in the earth's shadow,  

DLR